QPF
0.00 0.00 0.00 0.00 0.00 0.00 0.00 0.00 0.00 0.00 0.00 0.00 0.00 0.00 0.00 0.00 0.00 0.00 0.00 0.00 0.00 0.00 0.00 0.00 0.00 0.00 0.00 0.00 0.00 0.00 0.00 0.00 0.00 0.00 0.00 0.00 0.00 0.00 0.01 0.01 0.01 0.01 0.01 0.01
0.00 0.00 0.00 0.00 0.00 0.00 0.00 0.00 0.00 0.00 0.00 0.00 0.00 0.00 0.00 0.00 0.00 0.00 0.00 0.00 0.00 0.00 0.00 0.00 0.00 0.00 0.00 0.00 0.00 0.00 0.00 0.00 0.00 0.00 0.00 0.00 0.00 0.00 0.00 0.01 0.01 0.01 0.01 0.01
0.00 0.00 0.00 0.00 0.00 0.00 0.00 0.00 0.00 0.00 0.00 0.00 0.00 0.00 0.00 0.00 0.00 0.00 0.00 0.00 0.00 0.00 0.00 0.00 0.00 0.00 0.00 0.00 0.00 0.00 0.00 0.00 0.00 0.00 0.00 0.00 0.00 0.00 0.00 0.00 0.00 0.00 0.00 0.01
0.00 0.00 0.00 0.00 0.00 0.00 0.00 0.00 0.00 0.00 0.00 0.00 0.00 0.00 0.00 0.00 0.00 0.00 0.00 0.00 0.00 0.00 0.00 0.00 0.00 0.00 0.00 0.00 0.00 0.00 0.00 0.00 0.00 0.00 0.00 0.00 0.00 0.00 0.00 0.00 0.00 0.00 0.00 0.00
0.00 0.00 0.00 0.00 0.00 0.00 0.00 0.00 0.00 0.00 0.00 0.00 0.00 0.00 0.00 0.00 0.00 0.00 0.00 0.00 0.00 0.00 0.00 0.00 0.00 0.00 0.00 0.00 0.00 0.00 0.00 0.00 0.00 0.00 0.00 0.00 0.00 0.00 0.00 0.00 0.00 0.00 0.00 0.00
0.00 0.00 0.00 0.00 0.00 0.00 0.00 0.00 0.00 0.00 0.00 0.00 0.00 0.00 0.00 0.00 0.00 0.00 0.00 0.00 0.00 0.00 0.00 0.00 0.00 0.00 0.00 0.00 0.00 0.00 0.00 0.00 0.00 0.00 0.00 0.00 0.00 0.00 0.00 0.00 0.00 0.00 0.00 0.00
0.00 0.00 0.00 0.00 0.00 0.00 0.00 0.00 0.00 0.00 0.00 0.00 0.00 0.00 0.00 0.00 0.00 0.00 0.00 0.00 0.00 0.00 0.00 0.00 0.00 0.00 0.00 0.00 0.00 0.00 0.00 0.00 0.00 0.00 0.00 0.00 0.00 0.00 0.00 0.00 0.00 0.00 0.00 0.00
0.00 0.00 0.00 0.00 0.00 0.00 0.00 0.00 0.00 0.00 0.00 0.00 0.00 0.00 0.00 0.00 0.00 0.00 0.00 0.00 0.00 0.00 0.00 0.00 0.00 0.00 0.00 0.00 0.00 0.00 0.00 0.00 0.00 0.00 0.00 0.00 0.00 0.00 0.00 0.00 0.00 0.00 0.00 0.00
0.00 0.00 0.00 0.00 0.00 0.00 0.00 0.00 0.00 0.00 0.00 0.00 0.00 0.00 0.00 0.00 0.00 0.00 0.00 0.00 0.00 0.00 0.00 0.00 0.00 0.00 0.00 0.00 0.00 0.00 0.00 0.00 0.00 0.00 0.00 0.00 0.00 0.00 0.00 0.00 0.00 0.00 0.00 0.00
0.00 0.00 0.00 0.00 0.00 0.00 0.00 0.00 0.00 0.00 0.00 0.00 0.00 0.00 0.00 0.00 0.00 0.00 0.00 0.00 0.00 0.00 0.00 0.00 0.00 0.00 0.00 0.00 0.00 0.00 0.00 0.00 0.00 0.00 0.00 0.00 0.00 0.00 0.00 0.00 0.00 0.00 0.00 0.00
0.00 0.00 0.00 0.00 0.00 0.00 0.00 0.00 0.00 0.00 0.00 0.00 0.00 0.00 0.00 0.00 0.00 0.00 0.00 0.00 0.00 0.00 0.00 0.00 0.00 0.00 0.00 0.00 0.00 0.00 0.00 0.00 0.00 0.00 0.00 0.00 0.00 0.00 0.00 0.00 0.00 0.00 0.00 0.00
0.00 0.00 0.00 0.00 0.00 0.00 0.00 0.00 0.00 0.00 0.00 0.00 0.00 0.00 0.00 0.00 0.00 0.00 0.00 0.00 0.00 0.00 0.00 0.00 0.00 0.00 0.00 0.00 0.00 0.00 0.00 0.00 0.00 0.00 0.00 0.00 0.00 0.00 0.00 0.00 0.00 0.00 0.00 0.00
0.00 0.00 0.00 0.00 0.00 0.00 0.00 0.00 0.00 0.00 0.00 0.00 0.00 0.00 0.00 0.00 0.00 0.00 0.00 0.00 0.00 0.00 0.00 0.00 0.00 0.00 0.00 0.00 0.00 0.00 0.00 0.00 0.00 0.00 0.00 0.00 0.00 0.00 0.00 0.00 0.00 0.00 0.00 0.00
0.00 0.00 0.00 0.00 0.00 0.00 0.00 0.00 0.00 0.00 0.00 0.00 0.00 0.00 0.00 0.00 0.00 0.00 0.00 0.00 0.00 0.00 0.00 0.00 0.00 0.00 0.00 0.00 0.00 0.00 0.00 0.00 0.00 0.00 0.00 0.00 0.00 0.00 0.00 0.00 0.00 0.00 0.00 0.00
0.00 0.00 0.00 0.00 0.00 0.00 0.00 0.00 0.00 0.00 0.00 0.00 0.00 0.00 0.00 0.00 0.00 0.00 0.00 0.00 0.00 0.00 0.00 0.00 0.00 0.00 0.00 0.00 0.00 0.00 0.00 0.00 0.00 0.00 0.00 0.00 0.00 0.00 0.00 0.00 0.00 0.00 0.00 0.00
0.00 0.00 0.00 0.00 0.00 0.00 0.00 0.00 0.00 0.00 0.00 0.00 0.00 0.00 0.00 0.00 0.00 0.00 0.00 0.00 0.00 0.00 0.00 0.00 0.00 0.00 0.00 0.00 0.00 0.00 0.00 0.00 0.00 0.00 0.00 0.00 0.00 0.00 0.00 0.00 0.00 0.00 0.00 0.00
0.00 0.00 0.00 0.00 0.00 0.00 0.00 0.00 0.00 0.00 0.00 0.00 0.00 0.00 0.00 0.00 0.00 0.00 0.00 0.00 0.00 0.00 0.00 0.00 0.00 0.00 0.00 0.00 0.00 0.00 0.00 0.00 0.00 0.00 0.00 0.00 0.00 0.00 0.00 0.00 0.00 0.00 0.00 0.00
0.00 0.00 0.00 0.00 0.00 0.00 0.00 0.00 0.00 0.00 0.00 0.00 0.00 0.00 0.00 0.00 0.00 0.00 0.00 0.00 0.00 0.00 0.00 0.00 0.00 0.00 0.00 0.00 0.00 0.00 0.00 0.00 0.00 0.00 0.00 0.00 0.00 0.00 0.00 0.00 0.00 0.00 0.00 0.00
0.01 0.01 0.00 0.00 0.00 0.00 0.00 0.00 0.00 0.00 0.00 0.00 0.00 0.00 0.00 0.00 0.00 0.00 0.01 0.01 0.01 0.01 0.01 0.00 0.00 0.00 0.00 0.00 0.00 0.00 0.00 0.00 0.00 0.00 0.00 0.00 0.00 0.00 0.00 0.00 0.00 0.00 0.00 0.00
0.03 0.02 0.02 0.01 0.01 0.00 0.00 0.00 0.00 0.00 0.00 0.00 0.00 0.00 0.00 0.00 0.00 0.00 0.00 0.01 0.01 0.01 0.01 0.01 0.01 0.01 0.01 0.01 0.00 0.00 0.00 0.00 0.00 0.00 0.00 0.00 0.00 0.00 0.00 0.00 0.00 0.00 0.00 0.00
0.02 0.02 0.01 0.01 0.01 0.00 0.00 0.00 0.00 0.00 0.00 0.00 0.00 0.00 0.00 0.00 0.00 0.00 0.00 0.00 0.00 0.00 0.00 0.00 0.00 0.00 0.00 0.00 0.00 0.00 0.00 0.00 0.00 0.00 0.00 0.00 0.00 0.00 0.00 0.00 0.00 0.00 0.00 0.00
0.01 0.00 0.00 0.00 0.00 0.00 0.00 0.00 0.00 0.00 0.00 0.00 0.00 0.00 0.00 0.00 0.00 0.00 0.00 0.00 0.00 0.00 0.00 0.00 0.00 0.00 0.00 0.00 0.00 0.00 0.00 0.00 0.00 0.00 0.00 0.00 0.00 0.00 0.00 0.00 0.00 0.00 0.00 0.00
0.00 0.00 0.00 0.00 0.00 0.00 0.00 0.00 0.00 0.00 0.00 0.00 0.01 0.01 0.00 0.00 0.00 0.00 0.00 0.00 0.00 0.00 0.00 0.00 0.00 0.00 0.00 0.00 0.00 0.00 0.00 0.00 0.00 0.00 0.00 0.00 0.00 0.00 0.00 0.00 0.00 0.00 0.00 0.00
0.01 0.00 0.00 0.00 0.00 0.00 0.00 0.00 0.00 0.01 0.01 0.01 0.01 0.01 0.01 0.01 0.01 0.01 0.01 0.01 0.01 0.01 0.01 0.00 0.00 0.00 0.00 0.00 0.00 0.00 0.00 0.00 0.00 0.00 0.00 0.01 0.01 0.00 0.00 0.00 0.00 0.00 0.00 0.00
0.01 0.00 0.00 0.00 0.01 0.01 0.01 0.01 0.01 0.01 0.01 0.01 0.02 0.02 0.03 0.03 0.03 0.04 0.04 0.03 0.03 0.02 0.01 0.01 0.01 0.01 0.00 0.00 0.00 0.00 0.00 0.00 0.00 0.00 0.00 0.01 0.01 0.01 0.02 0.02 0.02 0.01 0.01 0.00
0.01 0.01 0.01 0.01 0.01 0.01 0.01 0.01 0.01 0.01 0.01 0.01 0.01 0.02 0.03 0.04 0.04 0.05 0.05 0.05 0.05 0.04 0.03 0.02 0.01 0.01 0.01 0.00 0.00 0.00 0.00 0.00 0.00 0.00 0.00 0.00 0.00 0.00 0.00 0.01 0.02 0.02 0.01 0.01
0.01 0.01 0.00 0.01 0.01 0.01 0.01 0.02 0.02 0.02 0.02 0.02 0.02 0.03 0.03 0.03 0.03 0.03 0.04 0.04 0.04 0.05 0.05 0.03 0.02 0.01 0.01 0.00 0.00 0.00 0.00 0.00 0.00 0.00 0.00 0.00 0.00 0.00 0.00 0.00 0.00 0.00 0.00 0.00
MSLP
1012.26 1012.37 1012.51 1012.65 1012.74 1012.74 1012.61 1012.30 1011.83 1011.19 1010.42 1009.59 1008.77 1008.04 1007.45 1007.04 1006.84 1006.83 1006.98 1007.27 1007.63 1008.04 1008.46 1008.87 1009.28 1009.69 1010.11 1010.55 1011.01 1011.48 1011.93 1012.36 1012.74 1013.06 1013.30 1013.49 1013.62 1013.72 1013.81 1013.89 1013.98 1014.07 1014.15 1014.20
1012.26 1012.28 1012.30 1012.30 1012.24 1012.10 1011.85 1011.47 1010.96 1010.32 1009.60 1008.83 1008.08 1007.40 1006.84 1006.42 1006.18 1006.11 1006.18 1006.38 1006.67 1007.03 1007.42 1007.86 1008.32 1008.81 1009.33 1009.87 1010.42 1010.97 1011.49 1011.98 1012.40 1012.75 1013.04 1013.26 1013.43 1013.57 1013.70 1013.83 1013.95 1014.07 1014.16 1014.22
1012.19 1012.12 1012.03 1011.91 1011.73 1011.48 1011.14 1010.70 1010.17 1009.56 1008.88 1008.17 1007.49 1006.85 1006.32 1005.90 1005.61 1005.46 1005.45 1005.55 1005.76 1006.06 1006.44 1006.88 1007.38 1007.93 1008.53 1009.15 1009.77 1010.39 1010.97 1011.49 1011.95 1012.34 1012.65 1012.91 1013.12 1013.31 1013.48 1013.64 1013.79 1013.93 1014.03 1014.08
1012.04 1011.89 1011.71 1011.49 1011.22 1010.90 1010.50 1010.04 1009.52 1008.93 1008.31 1007.67 1007.04 1006.45 1005.93 1005.50 1005.17 1004.95 1004.85 1004.87 1005.00 1005.24 1005.58 1006.02 1006.53 1007.12 1007.76 1008.42 1009.10 1009.75 1010.36 1010.91 1011.39 1011.79 1012.14 1012.43 1012.68 1012.91 1013.11 1013.31 1013.49 1013.64 1013.73 1013.78
1011.82 1011.60 1011.36 1011.07 1010.75 1010.38 1009.97 1009.51 1009.01 1008.47 1007.90 1007.32 1006.74 1006.19 1005.68 1005.23 1004.86 1004.59 1004.41 1004.35 1004.42 1004.60 1004.90 1005.31 1005.83 1006.42 1007.07 1007.75 1008.43 1009.09 1009.70 1010.25 1010.74 1011.16 1011.52 1011.84 1012.12 1012.39 1012.64 1012.87 1013.07 1013.22 1013.31 1013.34
1011.55 1011.28 1010.98 1010.66 1010.32 1009.95 1009.54 1009.10 1008.64 1008.15 1007.63 1007.10 1006.56 1006.04 1005.54 1005.08 1004.67 1004.35 1004.12 1004.00 1004.01 1004.14 1004.40 1004.78 1005.27 1005.84 1006.47 1007.14 1007.80 1008.44 1009.04 1009.58 1010.06 1010.48 1010.86 1011.21 1011.53 1011.83 1012.12 1012.38 1012.59 1012.76 1012.85 1012.86
1011.24 1010.93 1010.61 1010.29 1009.95 1009.60 1009.22 1008.82 1008.40 1007.95 1007.48 1006.98 1006.47 1005.96 1005.46 1004.99 1004.56 1004.20 1003.92 1003.76 1003.72 1003.81 1004.03 1004.38 1004.83 1005.37 1005.97 1006.60 1007.23 1007.84 1008.41 1008.93 1009.40 1009.83 1010.23 1010.60 1010.96 1011.31 1011.63 1011.92 1012.16 1012.34 1012.43 1012.44
1010.91 1010.58 1010.26 1009.95 1009.64 1009.33 1009.00 1008.65 1008.27 1007.85 1007.41 1006.93 1006.43 1005.91 1005.40 1004.91 1004.45 1004.06 1003.75 1003.55 1003.48 1003.53 1003.72 1004.03 1004.46 1004.96 1005.52 1006.11 1006.71 1007.28 1007.83 1008.34 1008.81 1009.26 1009.68 1010.09 1010.50 1010.89 1011.25 1011.58 1011.85 1012.04 1012.15 1012.17
1010.57 1010.23 1009.94 1009.67 1009.41 1009.15 1008.86 1008.55 1008.21 1007.82 1007.38 1006.90 1006.39 1005.85 1005.31 1004.78 1004.29 1003.87 1003.53 1003.30 1003.20 1003.23 1003.39 1003.67 1004.07 1004.54 1005.07 1005.64 1006.21 1006.77 1007.30 1007.82 1008.31 1008.79 1009.25 1009.71 1010.16 1010.60 1011.02 1011.39 1011.69 1011.92 1012.05 1012.09
1010.24 1009.92 1009.67 1009.45 1009.25 1009.04 1008.81 1008.53 1008.20 1007.82 1007.37 1006.87 1006.32 1005.74 1005.16 1004.59 1004.06 1003.59 1003.22 1002.96 1002.83 1002.83 1002.96 1003.22 1003.59 1004.04 1004.56 1005.11 1005.68 1006.25 1006.81 1007.35 1007.88 1008.41 1008.93 1009.45 1009.96 1010.45 1010.92 1011.34 1011.69 1011.95 1012.12 1012.20
1009.95 1009.68 1009.48 1009.32 1009.18 1009.02 1008.82 1008.57 1008.24 1007.84 1007.36 1006.82 1006.22 1005.59 1004.95 1004.32 1003.74 1003.22 1002.80 1002.50 1002.33 1002.30 1002.41 1002.65 1002.99 1003.43 1003.95 1004.51 1005.09 1005.69 1006.29 1006.89 1007.48 1008.07 1008.66 1009.24 1009.82 1010.38 1010.90 1011.36 1011.77 1012.08 1012.30 1012.42
1009.74 1009.54 1009.40 1009.29 1009.20 1009.08 1008.90 1008.65 1008.31 1007.88 1007.36 1006.77 1006.11 1005.41 1004.70 1004.01 1003.36 1002.79 1002.31 1001.96 1001.74 1001.67 1001.74 1001.94 1002.27 1002.70 1003.21 1003.79 1004.41 1005.05 1005.71 1006.38 1007.05 1007.72 1008.38 1009.03 1009.68 1010.29 1010.87 1011.39 1011.84 1012.21 1012.49 1012.67
1009.67 1009.53 1009.45 1009.39 1009.33 1009.22 1009.04 1008.77 1008.40 1007.93 1007.36 1006.71 1005.99 1005.23 1004.46 1003.70 1002.99 1002.35 1001.81 1001.39 1001.11 1000.98 1001.00 1001.16 1001.45 1001.86 1002.38 1002.97 1003.63 1004.32 1005.05 1005.79 1006.53 1007.28 1008.02 1008.75 1009.45 1010.12 1010.75 1011.32 1011.83 1012.25 1012.59 1012.84
1009.75 1009.68 1009.64 1009.61 1009.55 1009.43 1009.23 1008.92 1008.51 1007.99 1007.37 1006.66 1005.89 1005.08 1004.25 1003.44 1002.67 1001.97 1001.36 1000.88 1000.52 1000.32 1000.27 1000.37 1000.62 1001.00 1001.50 1002.10 1002.78 1003.52 1004.30 1005.11 1005.93 1006.74 1007.55 1008.34 1009.10 1009.82 1010.49 1011.11 1011.66 1012.14 1012.54 1012.85
1010.01 1009.98 1009.97 1009.93 1009.85 1009.69 1009.44 1009.08 1008.62 1008.04 1007.38 1006.63 1005.83 1004.98 1004.11 1003.26 1002.45 1001.70 1001.03 1000.47 1000.05 999.77 999.64 999.67 999.85 1000.19 1000.66 1001.25 1001.94 1002.70 1003.52 1004.38 1005.24 1006.12 1006.97 1007.81 1008.61 1009.37 1010.08 1010.73 1011.33 1011.86 1012.32 1012.71
1010.41 1010.41 1010.38 1010.32 1010.18 1009.96 1009.64 1009.22 1008.70 1008.08 1007.38 1006.61 1005.78 1004.92 1004.05 1003.19 1002.35 1001.56 1000.85 1000.24 999.74 999.38 999.17 999.13 999.24 999.51 999.93 1000.49 1001.16 1001.93 1002.76 1003.64 1004.54 1005.44 1006.34 1007.20 1008.03 1008.82 1009.55 1010.24 1010.88 1011.45 1011.96 1012.41
1010.89 1010.88 1010.82 1010.69 1010.48 1010.18 1009.79 1009.30 1008.72 1008.07 1007.34 1006.57 1005.75 1004.91 1004.05 1003.20 1002.36 1001.57 1000.84 1000.18 999.63 999.21 998.93 998.80 998.84 999.04 999.40 999.91 1000.54 1001.28 1002.10 1002.98 1003.89 1004.80 1005.70 1006.58 1007.43 1008.23 1008.99 1009.70 1010.37 1010.98 1011.54 1012.05
1011.35 1011.30 1011.18 1010.98 1010.69 1010.30 1009.82 1009.27 1008.65 1007.97 1007.24 1006.48 1005.70 1004.89 1004.08 1003.26 1002.46 1001.68 1000.95 1000.29 999.71 999.24 998.91 998.72 998.68 998.82 999.11 999.56 1000.14 1000.84 1001.62 1002.47 1003.36 1004.26 1005.16 1006.03 1006.88 1007.70 1008.47 1009.20 1009.89 1010.53 1011.13 1011.68
1011.68 1011.58 1011.39 1011.10 1010.72 1010.25 1009.71 1009.10 1008.45 1007.76 1007.05 1006.32 1005.58 1004.84 1004.09 1003.33 1002.59 1001.86 1001.16 1000.52 999.94 999.46 999.10 998.87 998.79 998.86 999.10 999.48 1000.01 1000.64 1001.37 1002.17 1003.02 1003.89 1004.76 1005.63 1006.47 1007.28 1008.06 1008.80 1009.51 1010.17 1010.79 1011.37
1011.79 1011.62 1011.36 1010.99 1010.54 1010.00 1009.41 1008.77 1008.10 1007.43 1006.74 1006.06 1005.39 1004.71 1004.03 1003.36 1002.69 1002.03 1001.40 1000.80 1000.27 999.81 999.45 999.21 999.11 999.15 999.34 999.67 1000.13 1000.70 1001.37 1002.11 1002.91 1003.73 1004.57 1005.40 1006.22 1007.03 1007.80 1008.55 1009.26 1009.94 1010.58 1011.18
1011.61 1011.39 1011.07 1010.64 1010.14 1009.56 1008.94 1008.29 1007.63 1006.98 1006.34 1005.71 1005.09 1004.49 1003.91 1003.32 1002.74 1002.17 1001.61 1001.09 1000.62 1000.22 999.91 999.69 999.60 999.63 999.79 1000.08 1000.48 1001.00 1001.60 1002.28 1003.00 1003.77 1004.56 1005.35 1006.15 1006.93 1007.70 1008.45 1009.16 1009.84 1010.49 1011.09
1011.16 1010.89 1010.52 1010.07 1009.53 1008.95 1008.33 1007.69 1007.05 1006.43 1005.84 1005.27 1004.72 1004.19 1003.68 1003.18 1002.70 1002.22 1001.77 1001.34 1000.97 1000.65 1000.40 1000.24 1000.18 1000.23 1000.38 1000.65 1001.02 1001.47 1002.02 1002.62 1003.28 1003.98 1004.71 1005.46 1006.22 1006.98 1007.73 1008.46 1009.17 1009.85 1010.49 1011.09
1010.47 1010.17 1009.78 1009.32 1008.79 1008.22 1007.61 1007.01 1006.41 1005.83 1005.28 1004.76 1004.28 1003.82 1003.38 1002.96 1002.57 1002.19 1001.84 1001.52 1001.25 1001.03 1000.88 1000.79 1000.79 1000.88 1001.05 1001.31 1001.65 1002.06 1002.54 1003.08 1003.67 1004.31 1004.98 1005.67 1006.39 1007.12 1007.84 1008.56 1009.26 1009.93 1010.56 1011.14
1009.62 1009.31 1008.92 1008.47 1007.97 1007.42 1006.86 1006.29 1005.73 1005.20 1004.70 1004.23 1003.79 1003.38 1003.01 1002.66 1002.35 1002.07 1001.82 1001.61 1001.45 1001.34 1001.28 1001.29 1001.36 1001.50 1001.71 1001.97 1002.29 1002.67 1003.11 1003.59 1004.12 1004.69 1005.29 1005.94 1006.61 1007.30 1007.99 1008.69 1009.37 1010.03 1010.64 1011.21
1008.69 1008.38 1008.01 1007.59 1007.11 1006.61 1006.10 1005.58 1005.07 1004.58 1004.11 1003.68 1003.28 1002.92 1002.59 1002.31 1002.06 1001.86 1001.70 1001.59 1001.54 1001.53 1001.59 1001.69 1001.84 1002.03 1002.28 1002.56 1002.88 1003.24 1003.63 1004.07 1004.54 1005.05 1005.60 1006.20 1006.82 1007.47 1008.14 1008.81 1009.47 1010.11 1010.71 1011.26
1007.74 1007.45 1007.10 1006.71 1006.28 1005.83 1005.36 1004.89 1004.43 1003.97 1003.54 1003.14 1002.77 1002.44 1002.16 1001.91 1001.72 1001.59 1001.51 1001.48 1001.52 1001.61 1001.76 1001.94 1002.17 1002.42 1002.71 1003.02 1003.34 1003.69 1004.06 1004.46 1004.89 1005.35 1005.86 1006.41 1007.00 1007.61 1008.25 1008.90 1009.54 1010.16 1010.74 1011.27
1006.83 1006.54 1006.22 1005.86 1005.48 1005.07 1004.65 1004.23 1003.80 1003.39 1002.99 1002.62 1002.27 1001.97 1001.71 1001.50 1001.35 1001.27 1001.24 1001.29 1001.40 1001.57 1001.79 1002.04 1002.33 1002.64 1002.96 1003.29 1003.63 1003.97 1004.33 1004.71 1005.11 1005.55 1006.03 1006.55 1007.11 1007.70 1008.31 1008.93 1009.55 1010.15 1010.72 1011.23
Thickness
5728 5729 5725 5724 5724 5722 5720 5727 5723 5731 5735 5746 5754 5756 5758 5758 5757 5754 5753 5751 5749 5746 5744 5740 5736 5732 5728 5723 5718 5713 5707 5702 5699 5696 5692 5687 5684 5681 5679 5676 5674 5672 5669 5668
5722 5725 5722 5719 5725 5726 5724 5726 5728 5731 5736 5755 5759 5759 5758 5758 5756 5753 5753 5753 5752 5750 5747 5742 5738 5734 5730 5724 5720 5715 5709 5704 5700 5695 5691 5687 5684 5681 5678 5675 5674 5671 5669 5667
5716 5722 5717 5716 5731 5730 5729 5733 5731 5729 5742 5755 5753 5754 5756 5759 5758 5756 5756 5755 5754 5752 5749 5746 5743 5738 5731 5727 5721 5715 5710 5705 5700 5696 5691 5687 5684 5681 5677 5675 5673 5670 5668 5666
5713 5713 5698 5729 5742 5737 5732 5735 5740 5741 5747 5750 5751 5756 5759 5761 5760 5759 5758 5756 5755 5754 5751 5748 5745 5739 5734 5727 5721 5716 5711 5706 5700 5695 5691 5687 5683 5680 5677 5677 5673 5670 5668 5667
5708 5703 5711 5729 5737 5733 5728 5731 5744 5742 5745 5748 5751 5752 5759 5763 5762 5761 5760 5758 5757 5755 5752 5748 5744 5739 5733 5727 5721 5715 5710 5705 5701 5696 5691 5687 5683 5680 5678 5675 5673 5671 5669 5666
5703 5696 5698 5723 5736 5738 5730 5724 5741 5741 5741 5742 5742 5741 5752 5762 5759 5759 5757 5756 5754 5752 5750 5745 5741 5736 5730 5725 5720 5715 5710 5706 5702 5697 5691 5687 5684 5681 5678 5674 5672 5670 5668 5667
5699 5697 5711 5731 5730 5726 5712 5721 5736 5738 5738 5738 5738 5745 5751 5755 5755 5754 5752 5750 5749 5747 5744 5741 5738 5732 5727 5724 5720 5716 5710 5705 5700 5696 5691 5687 5683 5680 5677 5674 5672 5670 5668 5666
5699 5692 5702 5725 5721 5717 5722 5732 5733 5734 5735 5735 5738 5743 5745 5747 5748 5748 5746 5744 5743 5741 5738 5736 5733 5729 5725 5721 5718 5713 5707 5701 5697 5694 5690 5686 5681 5678 5676 5673 5670 5669 5667 5666
5705 5708 5717 5718 5718 5721 5722 5722 5725 5727 5729 5730 5732 5736 5738 5740 5742 5742 5742 5739 5737 5736 5732 5730 5728 5725 5722 5717 5713 5708 5702 5698 5694 5691 5687 5684 5680 5677 5674 5671 5670 5668 5666 5664
5697 5707 5711 5711 5712 5712 5713 5714 5718 5720 5723 5724 5726 5730 5733 5734 5736 5736 5736 5735 5732 5729 5727 5725 5723 5720 5718 5714 5709 5704 5699 5695 5691 5688 5684 5681 5677 5675 5672 5669 5667 5665 5662 5660
5687 5697 5699 5703 5703 5703 5704 5707 5710 5713 5716 5717 5719 5722 5726 5728 5730 5730 5730 5729 5727 5725 5723 5721 5718 5714 5712 5709 5705 5700 5697 5692 5688 5684 5681 5676 5671 5666 5665 5660 5659 5656 5656 5654
5678 5686 5685 5690 5694 5693 5692 5695 5698 5701 5706 5710 5712 5715 5718 5721 5723 5724 5723 5723 5721 5720 5717 5716 5713 5709 5706 5703 5700 5697 5693 5689 5684 5679 5674 5670 5665 5658 5649 5649 5645 5643 5641 5641
5669 5671 5671 5676 5679 5681 5681 5684 5688 5691 5695 5700 5704 5707 5710 5712 5714 5715 5715 5715 5715 5714 5712 5710 5707 5703 5700 5697 5694 5691 5688 5683 5678 5674 5669 5665 5661 5656 5650 5641 5636 5634 5632 5631
5653 5653 5657 5662 5664 5666 5669 5673 5678 5683 5687 5691 5695 5698 5700 5702 5705 5705 5706 5708 5708 5706 5704 5702 5699 5696 5694 5690 5686 5684 5681 5675 5671 5667 5663 5660 5656 5652 5648 5644 5639 5633 5626 5621
5638 5639 5642 5646 5649 5652 5656 5661 5665 5671 5675 5680 5683 5686 5688 5690 5693 5695 5697 5698 5698 5696 5695 5693 5690 5688 5685 5682 5679 5676 5672 5667 5664 5660 5656 5653 5649 5645 5642 5637 5633 5629 5624 5617
5624 5626 5627 5630 5633 5637 5642 5646 5650 5656 5661 5665 5669 5673 5676 5679 5682 5684 5686 5686 5686 5686 5686 5684 5682 5679 5675 5672 5669 5666 5662 5656 5654 5651 5648 5644 5640 5637 5633 5629 5625 5621 5617 5612
5606 5609 5612 5615 5618 5622 5626 5630 5635 5640 5646 5650 5654 5659 5663 5666 5669 5672 5673 5674 5675 5676 5676 5674 5672 5668 5664 5662 5660 5656 5652 5645 5641 5641 5639 5635 5631 5628 5624 5620 5616 5611 5607 5600
5591 5592 5595 5598 5601 5605 5609 5614 5619 5625 5630 5635 5640 5644 5648 5652 5656 5658 5660 5660 5661 5661 5663 5663 5660 5656 5653 5651 5649 5646 5642 5638 5634 5631 5628 5624 5621 5618 5614 5610 5605 5600 5595 5589
5572 5574 5576 5579 5583 5588 5593 5598 5603 5609 5614 5619 5624 5628 5633 5637 5640 5643 5645 5645 5646 5646 5647 5647 5644 5643 5641 5638 5635 5633 5630 5626 5623 5619 5616 5610 5608 5606 5602 5598 5594 5590 5585 5580
5557 5558 5561 5563 5566 5570 5575 5580 5586 5592 5597 5602 5607 5612 5617 5621 5624 5626 5628 5630 5631 5633 5632 5631 5629 5629 5627 5624 5621 5620 5617 5614 5610 5607 5603 5600 5597 5594 5590 5586 5583 5579 5574 5570
5541 5543 5546 5549 5552 5555 5559 5565 5570 5575 5580 5585 5590 5595 5600 5604 5607 5609 5611 5613 5615 5615 5615 5613 5615 5614 5613 5610 5607 5607 5604 5601 5598 5595 5591 5588 5585 5581 5578 5574 5570 5566 5562 5558
5527 5529 5531 5535 5538 5542 5546 5550 5554 5559 5564 5568 5573 5578 5582 5586 5589 5592 5594 5596 5597 5596 5597 5598 5599 5598 5597 5594 5594 5592 5590 5587 5584 5581 5578 5575 5572 5569 5565 5561 5558 5553 5549 5545
5514 5516 5518 5521 5525 5528 5532 5536 5539 5543 5547 5552 5556 5560 5565 5568 5571 5574 5577 5579 5579 5579 5582 5583 5583 5581 5579 5579 5579 5577 5575 5573 5570 5567 5564 5562 5558 5555 5552 5548 5544 5540 5536 5531
5501 5503 5506 5509 5511 5515 5519 5523 5525 5529 5532 5536 5540 5543 5547 5551 5555 5558 5560 5561 5562 5562 5565 5564 5563 5563 5563 5565 5564 5562 5561 5559 5556 5554 5550 5547 5544 5541 5538 5534 5530 5526 5522 5518
5490 5492 5495 5497 5500 5503 5506 5509 5513 5516 5519 5523 5526 5529 5532 5535 5538 5541 5543 5545 5545 5545 5548 5548 5548 5547 5548 5549 5549 5548 5546 5544 5542 5539 5536 5533 5530 5527 5523 5520 5516 5512 5509 5505
5481 5483 5485 5487 5490 5491 5494 5497 5500 5503 5506 5510 5513 5515 5517 5519 5521 5524 5526 5529 5530 5530 5531 5532 5533 5532 5533 5534 5533 5532 5531 5528 5525 5523 5521 5518 5516 5512 5509 5506 5503 5499 5496 5492
5473 5474 5476 5479 5481 5483 5484 5486 5489 5492 5494 5497 5500 5503 5504 5506 5508 5510 5513 5515 5516 5517 5518 5518 5519 5520 5519 5519 5518 5517 5516 5514 5512 5509 5507 5505 5502 5499 5496 5493 5490 5486 5482 5479